Home > Weather > Silverstone > Past weeks

Flag for United Kingdom Past Weather in Silverstone, England, United Kingdom — Yesterday and Last 2 Weeks

Now
70 °F

Scattered clouds.


Feels Like: 70 °F
Forecast: 53 / 68 °F
Wind: 9 mph from West

Location: Cranfield

Current Time: Jul 29, 2016 at 4:55:27 PM

Latest Report: Jul 29, 2016 at 3:50 PM


Visibility: N/A

Pressure: 29.83 "Hg

Humidity: 64%

Dew Point: 57 °F

Location of SilverstoneLocation

Past Weather in Silverstone — Graph

°F

Silverstone Temperature Yesterday

Maximum temperature yesterday: 68 °F (at 11:50 AM)
Minimum temperature yesterday: 57 °F (at 7:20 AM)
Average temperature yesterday: 64 °F

High & Low Weather Summary for the Past Weeks

 TemperatureHumidityPressure
High88 °F (Jul 19, 1:50 PM)100% (Jul 27, 7:20 AM)30.30 "Hg (Jul 27, 7:20 AM)
Low54 °F (Jul 15, 7:20 AM)37% (Jul 18, 5:50 PM)29.71 "Hg (Jul 20, 7:20 AM)
Average71 °F69%30.06 "Hg
* Reported Jul 14 3:20 PM — Jul 29 3:20 PM, Silverstone, Weather by CustomWeather, © 2016

Note: Actual official high and low records may vary slightly from our data, if they occured in-between our weather recording intervals... More about our weather records

Advertising

Silverstone Weather History for the Previous 24 Hours

Scroll right to see more
 ConditionsComfort  
Time TempWeatherWind HumidityBarometerVisibility
3:20 PM
Fri, Jul 29
72 °FScattered clouds.10 mph61%29.83 "HgN/A
2:50 PM73 °FScattered clouds.13 mph61%29.83 "HgN/A
2:20 PM72 °FScattered clouds.13 mph65%29.80 "HgN/A
1:50 PM72 °FScattered clouds.10 mph65%29.83 "HgN/A
1:20 PM70 °FScattered clouds.10 mph78%29.83 "HgN/A
12:50 PM68 °FScattered clouds.10 mph83%29.83 "HgN/A
12:20 PM64 °FPassing clouds.10 mph88%29.83 "HgN/A
11:50 AM64 °FMild.8 mph94%29.83 "HgN/A
11:20 AM66 °FSprinkles. Scattered clouds.9 mph83%29.83 "Hg1 mi
10:50 AM68 °FScattered clouds.9 mph78%29.83 "HgN/A
10:20 AM66 °FBroken clouds.7 mph88%29.83 "HgN/A
9:50 AM64 °FPartly sunny.9 mph88%29.83 "HgN/A
9:20 AM64 °FDrizzle. Partly sunny.7 mph88%29.83 "Hg3 mi
8:50 AM63 °FPartly sunny.9 mph88%29.83 "HgN/A
8:20 AM63 °FPartly sunny.8 mph88%29.83 "HgN/A
7:50 AM61 °FPartly sunny.7 mph94%29.83 "HgN/A
7:20 AM61 °FPartly sunny.9 mph94%29.83 "HgN/A
5:20 PM
Thu, Jul 28
66 °FScattered clouds.14 mph83%29.86 "HgN/A
4:50 PM66 °FScattered clouds.15 mph78%29.86 "HgN/A
Weather by CustomWeather, © 2016

See weather overviewHow to use our weather pages